User: anonymous   Login
Location: Austin
(30.3000°N, 97.7500°W)
Time: 16:00:27
(UTC-05:00)
Language:

CZ-4B R/B - Orbit

View from above orbital plane
View from above orbital plane
View from above satellite
View from above satellite

Ground track
Ground track

The orbit is defined by the following mean orbital elements,

1 27432U          26106.40977632 +.00000000 +00000-0 +34147-4 0 00007
2 27432  98.8762 159.6124 0049031 275.9598  94.0903 14.14554253    09
Epoch (UTC): 16 April 2026 09:50:04
Eccentricity: 0.0049031
inclination: 98.8762°
perigee height: 808 km
apogee height: 879 km
right ascension of ascending node: 159.6124°
argument of perigee: 275.9598°
revolutions per day: 14.14554253
mean anomaly at epoch: 94.0903°

The dashed part of the orbit path shows where the satellite is in the earth's shadow,  

DLR